Preview of NWS' New Version of Forecast
This preview is not operational and should not be used for support decisions.

Regional Weather Roundup (RWR)

Issued by National Weather Service (NWS)

                            
000
ASUS43 KTOP 181659
RWRKS 

WEATHER ROUNDUP FOR KANSAS
NATIONAL WEATHER SERVICE GOODLAND KS
1200 PM CDT THU APR 18 2019

NOTE:  "FAIR" INDICATES FEW OR NO CLOUDS BELOW 12,000 FEET WITH NO
SIGNIFICANT WEATHER AND/OR OBSTRUCTIONS TO VISIBILITY.

KSZ001>006-013>018-027>032-041>047-181800-
NORTHWEST KANSAS
  
CITY           SKY/WX    TMP DP  RH WIND       PRES   REMARKS
GOODLAND       LGT RAIN  51  35  54 N21G33    30.10S                  
HAYS           MOSUNNY   64  36  35 N23G31    29.99R                  
HILL CITY      SUNNY     63  34  33 N25G35    30.03R                  
RUSSELL        SUNNY     63  36  36 N22G33    29.96S                  
$$

KSZ061>065-074>080-084>089-181800-
SOUTHWEST KANSAS
  
CITY           SKY/WX    TMP DP  RH WIND       PRES   REMARKS
DODGE CITY     MOSUNNY   63  35  35 NW22G37   30.02F                  
GARDEN CITY    SUNNY     61  29  29 NW30G40   30.06S                  
GREAT BEND     MOSUNNY   63  38  39 N22G28    29.98S                  
LIBERAL        SUNNY     64  30  27 NW35G40   30.06F                  
$$

KSZ066>073-081>083-090>101-181800-
SOUTHEAST KANSAS
  
CITY           SKY/WX    TMP DP  RH WIND       PRES   REMARKS
CHANUTE        PTSUNNY   59  44  57 N17G26    29.90R                  
COFFEYVILLE    CLOUDY    60  45  57 N21G29    29.88S                  
HUTCHINSON     MOSUNNY   63  41  44 N14G24    29.96S                  
MEDICINE LODGE   N/A     64  40  41 N16G28    29.97S                  
NEWTON         SUNNY     59  43  55 NW20G31   29.95S                  
PARSONS          N/A     58  44  60 N15G25    29.91R                  
WICHITA INTL   MOSUNNY   61  42  49 N22G32    29.96R                  
WICHITA JABRA  SUNNY     60  41  49 N23G32    29.95S                  
WICHITA MCCONL MOSUNNY   60  42  52 N21G31    29.95R                  
WINFIELD       SUNNY     61  45  55 N20G29    29.96R                  
$$

KSZ007>012-019>026-033>040-048>060-102>105-181800-
NORTHEAST KANSAS
  
CITY           SKY/WX    TMP DP  RH WIND       PRES   REMARKS
CONCORDIA      MOSUNNY   62  40  44 N14G25    29.95R                  
EMPORIA        MOSUNNY   59  44  57 N16G24    29.91S                  
LAWRENCE       PTSUNNY   58  42  55 N15G28    29.90R                  
MANHATTAN      MOSUNNY   61  40  45 N12G18    29.94R                  
OLATHE IND     PTSUNNY   53  43  68 NW18G26   29.89R                  
OLATHE EXE     CLOUDY    54  40  59 N15G25    29.88R                  
SALINA         MOSUNNY   64  41  42 N18G24    29.96S                  
TOPEKA BILLARD PTSUNNY   60  42  51 NW18G28   29.91R                  
TOPEKA FORBES  CLOUDY    59  41  51 NW23G33   29.90R                  
$$